sat.trackr.live / text

‹ back to catalog

ONEWEB-0191

NORAD 48239 · 2021-031AF

PAYLOAD ACTIVE UNKNOWN

§ Identity

Operator
Country
UK
Launch date
2021-04-25
Launch site
VOSTO
Launch vehicle
Mass (kg)
RCS (m²)

Purposes: comms

External: N2YO · Heavens-Above · Gunter

§ Orbital elements

Epoch: 2026-05-24T22:34:50.268576Z

Period
109.55 min
Inclination
87.8945°
Eccentricity
0.0002018
Mean motion
13.14501317 rev/d
Perigee alt
1,204.3 km
Apogee alt
1,207.3 km
Semi-major
7,583.9 km
B*
5.5229e-4
RAAN
294.3319°
Arg perigee
99.3319°
Mean anomaly
260.8039°
Rev number
24,511

§ Raw data

ONEWEB-01911 48239U 21031AF  26144.94085959  .00000218  00000+0  55229-3 0  99952 48239  87.8945 294.3319 0002018  99.3319 260.8039 13.14501317245112

JSON: /api/v1/satellites/48239 · /tle

For live sub-satellite position, see the globe view (requires WebGL).

§ Visibility from observer

Set your observer location to see the next 7 days of passes ≥ 10°. The values pass through the URL so the page stays shareable.

No JS? Fill the form by hand. The geolocation button needs JavaScript.